WS Maaseik 1 Meer informatie WS Maaseik 1


WS Maaseik 2 Meer informatie WS Maaseik 2


Regen radar Meer informatie rain snow radar


Bezoek onze andere website:

Vorige versie
weerstation Maaseik


Bezoek ook eens deze sites:

Weerstation Geleen



We konden geen weer-waarchuwingen ophalen. Ga rechtstreeks naar de Meteoalarm site : www.meteoalarm.eu en controleer daar .

15 daagse weersverwachting Lillestrøm (NO)

  • Overzicht
  • Per uur
  • 15 dagen
  • Extra
  • Vergelijk
  • Kaarten
  • Dagkaart
  • Meer »
  • Info
  • Statistieken
  • Directe link
    Temp 6h Neerslag Wind  
 05:31     21:11    Daglengte: 15:40 Vandaag
20:00
24°
 
2
 05:33     21:08    Daglengte: 15:35 Morgen
02:00
17°
 
1
08:00
18°
 
2
14:00
27°
 
3
20:00
21°
7.5 mm
2
warningclass
 05:36     21:06    Daglengte: 15:30 Dinsdag 16 Aug
02:00
19°
26.5 mm
2
warningclass
08:00
19°
25.1 mm
2
14:00
24°
21.5 mm
3
warningclass
20:00
20°
43.6 mm
3
warningclass
 05:38     21:03    Daglengte: 15:25 Woensdag 17 Aug
02:00
18°
54.5 mm
2
08:00
18°
23.3 mm
4
Locatie info
Region: Akershus
Latitude: 59.9570°N
Longitude: 11.0483°E
116 masl
Postcode: 2000
Temp/Neerslag /Baro Onweer/Dauwpunt
    Temp Baro 1h Neerslag Dauwpunt Wind UV Bewolking  
 05:31     21:11    Daglengte: 15:40 Vandaag
16:00
27°
Voelt als: 26.4°
1014.7 hPa   10.6°
3
Windvlaag: 5.9 m/s
58%
17:00
27°
Voelt als: 26.4°
1014.3 hPa   10.3°
3
Windvlaag: 5.6 m/s
43%
18:00
26°
1013.7 hPa   10.2°
3
Windvlaag: 5.2 m/s
70%
19:00
25°
1013.4 hPa   10.7°
3
Windvlaag: 4.9 m/s
70%
20:00
24°
1013.3 hPa   12.5°
2
Windvlaag: 4.8 m/s
76%
21:00
22°
1013.6 hPa   14.3°
1
Windvlaag: 3.9 m/s
79%
22:00
21°
1013.4 hPa   14.8°
1
Windvlaag: 2.4 m/s
73%
23:00
20°
1013.4 hPa   15.2°
1
Windvlaag: 1.6 m/s
74%
 05:33     21:08    Daglengte: 15:35 Morgen
00:00
19°
1013.2 hPa   15.5°
1
Windvlaag: 0.2 m/s
50%
01:00
18°
1013.0 hPa   15.0°
1
Windvlaag: -0.4 m/s
68%
02:00
17°
1012.8 hPa   15.0°
1
Windvlaag: -0.5 m/s
75%
03:00
17°
1012.6 hPa   14.9°
1
Windvlaag: -0.5 m/s
36%
04:00
16°
1012.4 hPa   14.1°
1
Windvlaag: 0.1 m/s
60%
05:00
16°
1012.1 hPa
16%
13.6°
1
Windvlaag: -0.5 m/s
38%
06:00
16°
1012.0 hPa
18%
13.7°
2
Windvlaag: -1.4 m/s
65%
07:00
16°
1011.9 hPa
19%
14.7°
2
Windvlaag: -1 m/s
73%
08:00
18°
1011.9 hPa   16.1°
2
Windvlaag: -0.8 m/s
58%
09:00
20°
1011.9 hPa   16.5°
2
Windvlaag: -0.4 m/s
15%
10:00
21°
1011.7 hPa   16.4°
3
Windvlaag: 0.8 m/s
9%
11:00
23°
1011.5 hPa   16.1°
3
Windvlaag: 1.5 m/s
8%
12:00
25°
1011.0 hPa   15.8°
3
Windvlaag: 3.3 m/s
8%
13:00
26°
1010.5 hPa   14.7°
3
Windvlaag: 5.4 m/s
12%
14:00
27°
1010.2 hPa   13.9°
3
Windvlaag: 5.6 m/s
16%
15:00
27°
1009.7 hPa   15.1°
3
Windvlaag: 5.8 m/s
12%
16:00
26°
1009.5 hPa
59%
18.6°
4
Windvlaag: 7.5 m/s
51%
17:00
25°
1009.3 hPa
78%
18.6°
3
Windvlaag: 6.7 m/s
22%
18:00
23°
1009.4 hPa 2.5 mm
82%
20.7°
3
Windvlaag: 5.9 m/s
30%
19:00
22°
1009.4 hPa 2.7 mm
82%
20.5°
2
Windvlaag: 4.5 m/s
23%
20:00
21°
1009.6 hPa 2.4 mm
82%
19.6°
2
Windvlaag: 3.5 m/s
35% warningclass
21:00
20°
1009.9 hPa 2.7 mm
82%
19.4°
1
Windvlaag: -3 m/s
50% warningclass
22:00
19°
1009.9 hPa 4.2 mm
82%
19.2°
1
Windvlaag: -3.4 m/s
57% warningclass
23:00
19°
1009.9 hPa 4.7 mm
82%
18.9°
1
Windvlaag: -3.1 m/s
60% warningclass
 05:36     21:06    Daglengte: 15:30 Dinsdag 16 Aug
00:00
19°
1009.7 hPa 4.8 mm
82%
18.8°
2
Windvlaag: -2.8 m/s
49% warningclass
01:00
19°
1009.6 hPa 4.7 mm
82%
18.8°
2
Windvlaag: -2 m/s
48%
02:00
19°
1009.3 hPa 5.4 mm
82%
18.7°
2
Windvlaag: -2 m/s
49% warningclass
03:00
19°
1009.0 hPa 4.9 mm
82%
18.6°
2
Windvlaag: -2 m/s
63%
04:00
19°
1008.8 hPa 5.0 mm
82%
18.6°
2
Windvlaag: -1.8 m/s
81%
05:00
19°
1008.5 hPa 5.0 mm
82%
18.3°
2
Windvlaag: -1 m/s
85%
06:00
18°
1008.5 hPa 5.4 mm
82%
18.2°
2
Windvlaag: -0.1 m/s
76% warningclass
07:00
19°
1008.3 hPa 4.8 mm
82%
18.2°
2
Windvlaag: -0.9 m/s
63%
08:00
19°
1008.2 hPa
82%
18.2°
2
Windvlaag: -1.5 m/s
73%
09:00
20°
1008.3 hPa
82%
18.7°
2
Windvlaag: -1.5 m/s
75%
10:00
21°
1008.2 hPa
82%
19.3°
3
Windvlaag: -0 m/s
64%
11:00
21°
1008.1 hPa 7.8 mm
100%
18.3°
2
Windvlaag: -0.8 m/s
56% warningclass
12:00
23°
1007.6 hPa
100%
17.4°
3
Windvlaag: 1.3 m/s
65%
13:00
24°
1007.1 hPa 8.1 mm
100%
17.7°
3
Windvlaag: 3.8 m/s
91% warningclass
14:00
24°
1006.7 hPa 5.7 mm
100%
18.6°
3
Windvlaag: 5.1 m/s
88% warningclass
15:00
24°
1006.4 hPa 5.6 mm
100%
16.0°
3
Windvlaag: 5.8 m/s
83% warningclass
16:00
23°
1006.1 hPa 6.6 mm
100%
16.5°
3
Windvlaag: 7.2 m/s
84% warningclass
17:00
22°
1006.1 hPa 7.6 mm
100%
18.5°
3
Windvlaag: 7.6 m/s
77% warningclass
18:00
21°
1005.5 hPa 7.7 mm
100%
17.4°
2
Windvlaag: 5.8 m/s
83% warningclass
19:00
21°
1005.5 hPa 7.6 mm
100%
18.4°
3
Windvlaag: 5.2 m/s
97% warningclass
20:00
20°
1005.6 hPa 8.5 mm
100%
18.8°
3
Windvlaag: 4.7 m/s
93% warningclass
21:00
20°
1005.8 hPa 8.2 mm
100%
18.5°
2
Windvlaag: 4.1 m/s
100% warningclass
22:00
19°
1005.6 hPa 7.6 mm
100%
17.8°
1
Windvlaag: 3 m/s
100%
23:00
19°
1005.5 hPa 7.7 mm
100%
18.1°
2
Windvlaag: 4.5 m/s
100% warningclass
 05:38     21:03    Daglengte: 15:25 Woensdag 17 Aug
00:00
19°
1005.5 hPa 7.6 mm
100%
18.4°
2
Windvlaag: 4.7 m/s
100% warningclass
01:00
19°
1005.5 hPa 11.7 mm
100%
18.3°
2
Windvlaag: 5 m/s
96% warningclass
02:00
18°
1005.4 hPa 11.7 mm
100%
18.0°
2
Windvlaag: 4.8 m/s
94%
03:00
18°
1005.5 hPa 11.7 mm
94%
17.5°
3
Windvlaag: 4.3 m/s
100%
04:00
18°
1005.4 hPa 11.7 mm
37%
17.8°
3
Windvlaag: 4.6 m/s
92%
05:00
18°
1005.4 hPa
38%
18.0°
3
Windvlaag: 4.2 m/s
98%
06:00
18°
1005.4 hPa
85%
17.7°
4
Windvlaag: 0.8 m/s
82%
07:00
18°
1005.6 hPa
82%
17.8°
4
Windvlaag: 0.7 m/s
81%
08:00
18°
1006.0 hPa
28%
17.6°
4
Windvlaag: 2.2 m/s
20%
09:00
18°
1006.4 hPa
27%
15.7°
5
Windvlaag: 6.7 m/s
20%
10:00
19°
1006.7 hPa
76%
15.0°
6
Windvlaag: 9.5 m/s
24%
11:00
19°
1007.1 hPa
45%
14.9°
5
Windvlaag: 8.7 m/s
50%
12:00
19°
1007.1 hPa
95%
14.2°
5
Windvlaag: 5 m/s
54%
13:00
19°
1007.3 hPa 11.8 mm
100%
13.7°
5
Windvlaag: 6.3 m/s
42%
14:00
20°
1007.4 hPa
100%
13.5°
5
Windvlaag: 3.8 m/s
42%
Temp/Neerslag /Baro Onweer/Dauwpunt
    Temp Baro Neerslag Dauwpunt Wind Bewolking  
 05:31     21:11    Daglengte: 15:40 Vandaag
17:00
27°
Voelt als: 26.4°
1014.3 hPa   10.3°
3
43%
20:00
24°
1013.3 hPa   12.5°
2
76%
23:00
20°
1013.4 hPa   15.2°
1
74%
 05:33     21:08    Daglengte: 15:35 Morgen
02:00
17°
1012.8 hPa   15.0°
1
75%
05:00
16°
1012.1 hPa   13.6°
1
38%
08:00
18°
1011.9 hPa   16.1°
2
58%
11:00
23°
1011.5 hPa   16.1°
3
8%
14:00
27°
1010.2 hPa   13.9°
3
16%
17:00
25°
1009.3 hPa   18.6°
3
22%
20:00
21°
1009.6 hPa 7.5 mm 19.6°
2
35% warningclass
23:00
19°
1009.9 hPa 11.6 mm 18.9°
1
60% warningclass
 05:36     21:06    Daglengte: 15:30 Dinsdag 16 Aug
02:00
19°
1009.3 hPa 14.9 mm 18.7°
2
49% warningclass
05:00
19°
1008.5 hPa 14.9 mm 18.3°
2
85%
08:00
19°
1008.2 hPa 10.2 mm 18.2°
2
73%
11:00
21°
1008.1 hPa 7.8 mm 18.3°
2
56% warningclass
14:00
24°
1006.7 hPa 13.7 mm 18.6°
3
88% warningclass
17:00
22°
1006.1 hPa 19.9 mm 18.5°
3
77% warningclass
20:00
20°
1005.6 hPa 23.8 mm 18.8°
3
93% warningclass
23:00
19°
1005.5 hPa 23.5 mm 18.1°
2
100% warningclass
 05:38     21:03    Daglengte: 15:25 Woensdag 17 Aug
02:00
18°
1005.4 hPa 31.0 mm 18.0°
2
94%
05:00
18°
1005.4 hPa 23.3 mm 18.0°
3
98%
08:00
18°
1006.0 hPa   17.6°
4
20%
11:00
19°
1007.1 hPa   14.9°
5
50%
14:00
20°
1007.4 hPa 35.2 mm 13.5°
5
42%
17:00
23°
1009.7 hPa 13.3 mm 13.6°
6
1%
20:00
19°
1010.2 hPa 13.3 mm 14.7°
4
1%
23:00
16°
1011.4 hPa 13.3 mm 15.0°
2
1%
 05:41     21:00    Daglengte: 15:19 Donderdag 18 Aug
02:00
15°
1012.5 hPa 13.3 mm 14.4°
1
1%
05:00
13°
1013.7 hPa 13.3 mm 9.3°
3
1%
08:00
14°
1014.7 hPa 13.3 mm 8.6°
3
1%
11:00
19°
1014.1 hPa 13.3 mm 10.2°
3
0%
14:00
24°
1013.0 hPa 13.4 mm 10.6°
1
0%
17:00
22°
1012.1 hPa 13.8 mm 13.5°
1
1%
20:00
18°
1011.9 hPa 15.0 mm 16.1°
1
1%
23:00
16°
1011.7 hPa 15.4 mm 15.1°
1
1%
 05:43     20:57    Daglengte: 15:14 Vrijdag 19 Aug
02:00
16°
1011.3 hPa 15.4 mm 15.1°
1
1%
05:00
15°
1011.1 hPa 15.4 mm 14.7°
1
0%
08:00
17°
1011.1 hPa 16.1 mm 16.5°
1
0%
11:00
19°
1010.9 hPa 16.6 mm 17.8°
1
1%
14:00
21°
1009.9 hPa 17.9 mm 18.8°
1
1%
17:00
22°
1008.6 hPa 23.4 mm 19.2°
2
1%
20:00
18°
1007.6 hPa 28.2 mm 17.7°
2
1%
23:00
17°
1007.4 hPa 31.8 mm 17.2°
1
1%
 05:45     20:54    Daglengte: 15:09 Zaterdag 20 Aug
02:00
17°
1007.4 hPa 33.9 mm 16.7°
2
1%
05:00
16°
1007.4 hPa 34.0 mm 15.5°
1
1%
08:00
16°
1007.3 hPa 34.0 mm 15.1°
0
1%
11:00
19°
1007.2 hPa 34.0 mm 15.1°
1
1%
14:00
21°
1006.7 hPa 34.0 mm 14.0°
2
1%
20:00
18°
1005.7 hPa 34.0 mm 12.1°
2
1%
23:00
15°
1006.0 hPa 34.0 mm 11.2°
1
1%
 05:48     20:51    Daglengte: 15:03 Zondag 21 Aug
02:00
14°
1005.1 hPa 34.0 mm 11.0°
1
1%
05:00
13°
1004.5 hPa 34.0 mm 11.2°
2
1%
08:00
16°
1003.4 hPa 34.0 mm 12.3°
2
1%
11:00
18°
1002.8 hPa 34.0 mm 10.5°
4
1%
14:00
18°
1002.5 hPa 34.0 mm 9.7°
5
1%
17:00
18°
1002.7 hPa   9.0°
4
1%
20:00
16°
1002.7 hPa 68.1 mm 9.1°
2
1%
 05:50     20:48    Daglengte: 14:58 Maandag 22 Aug
02:00
14°
1003.6 hPa 68.1 mm 7.8°
0
1%
08:00
13°
1005.2 hPa 68.5 mm 9.7°
1
1%
14:00
14°
1007.4 hPa 68.7 mm 7.7°
3
1%
20:00
14°
1006.9 hPa 68.7 mm 10.2°
1
1%
 05:52     20:45    Daglengte: 14:53 Dinsdag 23 Aug
02:00
12°
1006.6 hPa 70.1 mm 11.7°
1
1%
08:00
13°
1006.2 hPa 76.0 mm 12.9°
1
1%
14:00
17°
1007.8 hPa 77.7 mm 14.4°
2
1%
20:00
17°
1008.1 hPa 78.0 mm 13.0°
3
1%
 05:55     20:43    Daglengte: 14:48 Woensdag 24 Aug
02:00
12°
1010.0 hPa 78.0 mm 11.5°
1
0%
08:00
13°
1013.0 hPa 78.0 mm 10.4°
1
0%
14:00
21°
1015.2 hPa 0.1 mm 10.7°
2
62%
20:00
17°
1015.0 hPa 0.3 mm 11.4°
1
63%
 05:57     20:40    Daglengte: 14:43 Donderdag 25 Aug
02:00
13°
1016.4 hPa   10.5°
0
53%
08:00
14°
1016.9 hPa 0.1 mm 10.3°
0
58%
14:00
21°
1016.8 hPa 0.3 mm 10.4°
1
52%
20:00
17°
1016.9 hPa 0.2 mm 10.4°
1
41%
 06:00     20:37    Daglengte: 14:37 Vrijdag 26 Aug
02:00
12°
1018.7 hPa 0.1 mm 8.9°
0
45%
08:00
13°
1019.1 hPa 0.4 mm 9.5°
1
49%
14:00
21°
1018.3 hPa 0.2 mm 10.3°
1
56%
20:00
17°
1017.6 hPa 0.4 mm 10.5°
1
56%
 06:02     20:34    Daglengte: 14:32 Zaterdag 27 Aug
02:00
13°
1018.9 hPa 0.1 mm 9.7°
0
54%
08:00
14°
1018.9 hPa   9.8°
0
62%
14:00
20°
1017.8 hPa 0.2 mm 10.6°
1
55%
20:00
16°
1016.9 hPa 0.4 mm 11.2°
0
48%
 06:04     20:31    Daglengte: 14:27 Zondag 28 Aug
02:00
13°
1018.0 hPa 0.5 mm 10.4°
1
53%
08:00
13°
1018.0 hPa 0.3 mm 10.2°
1
57%
14:00
21°
1017.0 hPa 0.4 mm 10.8°
0
54%
20:00
17°
1016.6 hPa 0.4 mm 10.9°
0
53%
 06:07     20:28    Daglengte: 14:21 Maandag 29 Aug
02:00
12°
1018.1 hPa 0.3 mm 9.6°
1
48%
08:00
13°
1018.4 hPa 0.1 mm 9.3°
1
49%
14:00
21°
1017.8 hPa 0.4 mm 8.9°
0
41%
  CAPE Lifted Index Hail Supercell Tornado SRH 3km CL BTM PRES CL TOP PRES Swiss DWD icon SMHI TS
 05:31     21:11    Daglengte: 15:40 Vandaag
16:00 0 J/kg 1.5 K 0 % 0 % 0 % 0 m²/s² 0 0 3.03 3
17:00 0 J/kg 1.2 K 0 % 0 % 0 % 0 m²/s² 0 0 2.46 2
18:00 0 J/kg 1.2 K 0 % 0 % 0 % 0 m²/s² 0 0 2.46 3
19:00 0 J/kg 1.4 K 0 % 0 % 0 % 0 m²/s² 0 0 2.24 3
20:00 0 J/kg 1.6 K 0 % 0 % 0 % 0 m²/s² 0 0 1.87 3
21:00 0 J/kg 1.6 K 0 % 0 % 0 % 0 m²/s² 0 0 2.14 3
22:00 0 J/kg 1.3 K 0 % 0 % 0 % 0 m²/s² 0 0 2.11 3
23:00 0 J/kg 1.3 K 0 % 0 % 0 % 0 m²/s² 0 0 2.26 3
 05:33     21:08    Daglengte: 15:35 Morgen
00:00 0 J/kg 1.5 K 0 % 0 % 0 % 0 m²/s² 0 0 2.7 3
01:00 0 J/kg 1.3 K 0 % 0 % 0 % 0 m²/s² 0 0 2.62 3
02:00 0 J/kg 0.5 K 0 % 0 % 0 % 0 m²/s² 0 0 1.76 3
03:00 0 J/kg 0.6 K 0 % 0 % 0 % 0 m²/s² 0 0 1.74 3
04:00 0 J/kg 1.5 K 0 % 0 % 0 % 0 m²/s² 0 0 2.46 3
05:00 0 J/kg 1.2 K 0 % 0 % 0 % 0 m²/s² 0 0 2.34 3
06:00 0 J/kg 0.5 K 0 % 0 % 0 % 0 m²/s² 0 0 1.7 3
07:00 0 J/kg 1.4 K 0 % 0 % 0 % 0 m²/s² 0 0 2.6 3
08:00 0 J/kg 1.7 K 0 % 0 % 0 % 0 m²/s² 0 0 3.86 3
09:00 0 J/kg 1.8 K 0 % 0 % 0 % 0 m²/s² 0 0 6.24 1
10:00 0 J/kg 0.7 K 0 % 0 % 0 % 0 m²/s² 0 0 7.57 1
11:00 0 J/kg 0.1 K 0 % 0 % 0 % 0 m²/s² 0 0 7.18 1
12:00 0 J/kg 1.0 K 0 % 0 % 0 % 0 m²/s² 0 0 5.95 1
13:00 0 J/kg 2.0 K 0 % 0 % 0 % 0 m²/s² 0 0 5.93 2
14:00 0 J/kg 1.4 K 0 % 0 % 0 % 0 m²/s² 0 0 4.4 3
15:00 25 J/kg 0.0 K 0 % 0 % 0 % 0 m²/s² 0 0 1.5 2
16:00 295 J/kg -1.7 K 0 % 0 % 0 % 0 m²/s² 0 0 -1.25 2
17:00 243 J/kg -1.6 K 0 % 0 % 0 % 0 m²/s² 0 0 -1.3 3
18:00 530 J/kg -2.3 K 0 % 0 % 0 % 0 m²/s² 0 0 -1.58 80
19:00 600 J/kg -2.5 K 0 % 0 % 0 % 0 m²/s² 0 0 -1.72 2
20:00 645 J/kg -3.0 K 0 % 0 % 0 % 0 m²/s² 0 0 -2.43 95
21:00 568 J/kg -3.7 K 0 % 0 % 0 % 0 m²/s² 0 0 -3.67 95
22:00 597 J/kg -4.5 K 0 % 0 % 0 % 0 m²/s² 0 0 -4.47 95
23:00 786 J/kg -3.3 K 0 % 0 % 0 % 0 m²/s² 0 0 -3.18 95
 05:36     21:06    Daglengte: 15:30 Dinsdag 16 Aug
00:00 928 J/kg -3.7 K 0 % 0 % 0 % 0 m²/s² 0 0 -3.25 80
01:00 587 J/kg -2.7 K 0 % 0 % 0 % 0 m²/s² 0 0 -1.89 80
02:00 178 J/kg -3.4 K 0 % 0 % 0 % 0 m²/s² 0 0 -2.38 95
03:00 331 J/kg -2.5 K 0 % 0 % 0 % 0 m²/s² 0 0 -2.05 80
04:00 354 J/kg -3.0 K 0 % 0 % 0 % 0 m²/s² 0 0 -1.62 80
05:00 54 J/kg -3.0 K 0 % 0 % 0 % 0 m²/s² 0 0 -1.56 80
06:00 0 J/kg -2.7 K 0 % 0 % 0 % 0 m²/s² 0 0 -1.44 95
07:00 0 J/kg -1.1 K 0 % 0 % 0 % 0 m²/s² 0 0 -0.83 80
08:00 0 J/kg -1.6 K 0 % 0 % 0 % 0 m²/s² 0 0 -1.33 80
09:00 78 J/kg -1.9 K 0 % 0 % 0 % 0 m²/s² 0 0 -1.63 3
10:00 253 J/kg -1.8 K 0 % 0 % 0 % 0 m²/s² 0 0 -1.5 3
11:00 714 J/kg -3.1 K 0 % 0 % 0 % 0 m²/s² 0 0 -3.01 80
12:00 1603 J/kg -5.1 K 0 % 0 % 0 % 0 m²/s² 0 0 -4.65 3
13:00 1916 J/kg -6.1 K 0 % 0 % 0 % 0 m²/s² 0 0 -5.8 3
14:00 2021 J/kg -6.3 K 0 % 0 % 0 % 0 m²/s² 0 0 -6 95
15:00 2030 J/kg -6.3 K 0 % 0 % 0 % 0 m²/s² 0 0 -5.13 80
16:00 1929 J/kg -6.2 K 0 % 0 % 0 % 0 m²/s² 0 0 -5.39 95
17:00 796 J/kg -2.6 K 0 % 0 % 0 % 0 m²/s² 0 0 -1.28 95
18:00 592 J/kg -2.2 K 0 % 0 % 0 % 0 m²/s² 0 0 -0.46 95
19:00 1084 J/kg -3.9 K 0 % 0 % 0 % 0 m²/s² 0 0 -3.63 95
20:00 1081 J/kg -4.9 K 0 % 0 % 0 % 0 m²/s² 0 0 -4.33 95
21:00 540 J/kg -3.6 K 0 % 0 % 0 % 0 m²/s² 0 0 -2.94 95
22:00 79 J/kg -2.1 K 0 % 0 % 0 % 0 m²/s² 0 0 -1.62 80
23:00 292 J/kg -2.6 K 0 % 0 % 0 % 0 m²/s² 0 0 -0.92 95
 05:38     21:03    Daglengte: 15:25 Woensdag 17 Aug
00:00 724 J/kg -3.6 K 0 % 0 % 0 % 0 m²/s² 0 0 -2.34 80
01:00 535 J/kg -3.7 K 0 % 0 % 0 % 0 m²/s² 0 0 -2.14 80
02:00 181 J/kg -2.9 K 0 % 0 % 0 % 0 m²/s² 0 0 -1.22 3
03:00 30 J/kg -3.0 K 0 % 0 % 0 % 0 m²/s² 0 0 -1.68 3
04:00 40 J/kg -3.1 K 0 % 0 % 0 % 0 m²/s² 0 0 -1.93 3
05:00 61 J/kg -3.2 K 0 % 0 % 0 % 0 m²/s² 0 0 -2.09 3
06:00 103 J/kg -3.5 K 0 % 0 % 0 % 0 m²/s² 0 0 -2.63 3
07:00 126 J/kg -3.1 K 0 % 0 % 0 % 0 m²/s² 0 0 -2.29 3
08:00 190 J/kg -2.9 K 0 % 0 % 0 % 0 m²/s² 0 0 -2.24 2
09:00 1 J/kg -3.1 K 0 % 0 % 0 % 0 m²/s² 0 0 -2.44 2
10:00 0 J/kg -2.8 K 0 % 0 % 0 % 0 m²/s² 0 0 -2.71 3
11:00 0 J/kg -2.8 K 0 % 0 % 0 % 0 m²/s² 0 0 -2.77 2
12:00 0 J/kg -2.1 K 0 % 0 % 0 % 0 m²/s² 0 0 -1.74 3
13:00 0 J/kg -1.6 K 0 % 0 % 0 % 0 m²/s² 0 0 -1.09 80
14:00 0 J/kg -0.9 K 0 % 0 % 0 % 0 m²/s² 0 0 0.09 2
Temp Baro Wind Neerslag
  EWN Forecast EWN WRFDA DWD ICON FMI HIRLAM MET Norway GFS
 05:31     21:11    Daglengte: 15:40 Vandaag
17:00 26.5° 1014.3 hPa 3.0 m/s 0.0 mm 26.6° 1013.3 hPa 3.6 m/s 0.0 mm 25.3° 1014.6 hPa 3.4 m/s -2.0 mm 27.5° 1014.1 hPa 2.9 m/s 0.0 mm 26.6° 1013.7 hPa 3.7 m/s
20:00 23.9° 1013.3 hPa 2.0 m/s 0.0 mm 25.0° 1013.0 hPa 2.0 m/s 0.0 mm 23.1° 1013.2 hPa 1.9 m/s 0.0 mm 23.9° 1013.3 hPa 1.7 m/s 0.0 mm 21.6° 1013.0 hPa 1.3 m/s
23:00 19.5° 1013.4 hPa 0.7 m/s 0.0 mm 19.6° 1012.4 hPa 2.3 m/s 0.0 mm 19.2° 1013.5 hPa 0.4 m/s 0.0 mm 18.9° 1013.6 hPa 0.7 m/s 0.0 mm 18.2° 1012.8 hPa 0.9 m/s
 05:33     21:08    Daglengte: 15:35 Morgen
02:00 17.3° 1012.8 hPa 1.1 m/s 0.0 mm 18.1° 1011.6 hPa 1.6 m/s 0.0 mm 16.9° 1012.5 hPa 0.9 m/s 0.0 mm 16.8° 1013.1 hPa 1.1 m/s 0.0 mm 16.4° 1012.3 hPa 0.5 m/s
05:00 15.9° 1012.1 hPa 1.4 m/s 0.0 mm 16.8° 1010.8 hPa 2.2 m/s 0.0 mm 15.3° 1012.2 hPa 1.1 m/s 0.0 mm 15.2° 1012.4 hPa 1.3 m/s 0.0 mm 15.4° 1011.7 hPa 1.1 m/s
08:00 18.2° 1011.9 hPa 2.1 m/s 0.0 mm 18.1° 1010.8 hPa 1.9 m/s 0.0 mm 18.2° 1012.0 hPa 1.6 m/s 0.1 mm 16.8° 1011.7 hPa 2.1 m/s 0.0 mm 18.4° 1011.6 hPa 1.1 m/s
11:00 23.3° 1011.5 hPa 2.7 m/s 0.0 mm 23.7° 1010.1 hPa 3.3 m/s 0.0 mm 22.8° 1011.6 hPa 3.1 m/s 0.0 mm 23.2° 1011.3 hPa 2.5 m/s 0.0 mm 23.2° 1011.1 hPa 2.3 m/s
14:00 26.9° 1010.2 hPa 3.1 m/s 0.0 mm 26.2° 1009.1 hPa 4.0 m/s 0.0 mm 26.4° 1010.3 hPa 3.5 m/s 0.0 mm 27.1° 1010.2 hPa 2.7 m/s 0.0 mm 27.3° 1009.8 hPa 2.4 m/s
17:00 25.3° 1009.3 hPa 3.5 m/s 0.0 mm 20.7° 1008.8 hPa 2.7 m/s 1.7 mm 26.0° 1009.3 hPa 3.9 m/s 0.1 mm 26.0° 1008.5 hPa 2.9 m/s 0.0 mm 28.3° 1007.9 hPa 2.3 m/s
20:00 21.0° 1009.6 hPa 1.5 m/s 7.5 mm 22.5° 1007.7 hPa 1.7 m/s 5.0 mm 20.7° 1010.0 hPa 1.5 m/s 3.5 mm 21.4° 1008.4 hPa 1.6 m/s 0.0 mm 23.9° 1007.7 hPa 1.1 m/s
23:00 19.2° 1009.9 hPa 1.2 m/s 11.6 mm 19.9° 1008.4 hPa 1.2 m/s 37.5 mm 19.1° 1010.4 hPa 0.9 m/s 8.5 mm 18.9° 1009.0 hPa 1.0 m/s 0.0 mm 18.9° 1008.6 hPa 0.9 m/s
 05:36     21:06    Daglengte: 15:30 Dinsdag 16 Aug
02:00 18.9° 1009.3 hPa 2.0 m/s 14.9 mm 18.1° 1008.2 hPa 1.7 m/s 64.0 mm 18.7° 1009.4 hPa 1.6 m/s 3.3 mm 19.0° 1008.7 hPa 2.0 m/s 0.0 mm 16.3° 1009.5 hPa 1.1 m/s
05:00 18.5° 1008.5 hPa 1.8 m/s 14.9 mm 18.0° 1006.9 hPa 3.0 m/s 64.6 mm 18.4° 1008.6 hPa 1.3 m/s 2.0 mm 18.4° 1008.0 hPa 1.7 m/s 0.0 mm 17.0° 1008.7 hPa 1.5 m/s
08:00 18.8° 1008.2 hPa 2.2 m/s 10.2 mm 19.1° 1006.6 hPa 1.8 m/s 64.8 mm 18.8° 1008.4 hPa 1.8 m/s 2.9 mm 18.6° 1007.5 hPa 2.6 m/s 0.0 mm 18.5° 1008.3 hPa 1.5 m/s
11:00 21.5° 1008.1 hPa 2.4 m/s 7.8 mm 21.5° 1005.7 hPa 3.3 m/s 67.1 mm 21.0° 1008.4 hPa 2.3 m/s 0.7 mm 22.9° 1007.8 hPa 2.5 m/s
14:00 24.3° 1006.7 hPa 2.9 m/s 13.7 mm 25.5° 1005.0 hPa 2.8 m/s 72.2 mm 21.9° 1007.0 hPa 2.6 m/s 1.6 mm 25.1° 1006.1 hPa 3.2 m/s
17:00 21.9° 1006.1 hPa 3.5 m/s 19.9 mm 22.3° 1004.7 hPa 5.0 m/s 84.2 mm 21.9° 1006.1 hPa 2.7 m/s 3.3 mm 20.5° 1004.9 hPa 2.2 m/s
20:00 20.2° 1005.6 hPa 2.5 m/s 23.8 mm 20.9° 1004.4 hPa 6.2 m/s 93.2 mm 19.9° 1005.6 hPa 2.4 m/s 4.8 mm 19.4° 1005.6 hPa 2.6 m/s
23:00 18.9° 1005.5 hPa 1.6 m/s 23.5 mm 18.8° 1003.9 hPa 3.0 m/s 100.3 mm 18.9° 1005.6 hPa 1.6 m/s 3.8 mm 17.2° 1006.9 hPa 2.9 m/s
 05:38     21:03    Daglengte: 15:25 Woensdag 17 Aug
02:00 18.3° 1005.4 hPa 2.3 m/s 31.0 mm 17.7° 1004.2 hPa 1.5 m/s 103.1 mm 18.3° 1005.3 hPa 3.5 m/s 1.2 mm 17.5° 1007.3 hPa 3.8 m/s
05:00 18.0° 1005.4 hPa 2.9 m/s 23.3 mm 17.7° 1004.8 hPa 1.2 m/s 103.7 mm 17.9° 1005.3 hPa 4.3 m/s 0.1 mm 16.4° 1007.8 hPa 3.5 m/s
08:00 17.8° 1006.0 hPa 4.0 m/s 0.0 mm 17.6° 1006.3 hPa 1.4 m/s 104.1 mm 17.8° 1006.0 hPa 4.6 m/s 0.0 mm 18.2° 1008.9 hPa 4.2 m/s
11:00 18.9° 1007.1 hPa 5.3 m/s 0.0 mm 15.9° 1009.1 hPa 5.1 m/s 104.9 mm 19.7° 1006.5 hPa 5.4 m/s 0.0 mm 22.5° 1009.1 hPa 5.3 m/s
14:00 20.2° 1007.4 hPa 5.1 m/s 35.2 mm 19.2° 1009.8 hPa 3.8 m/s 104.9 mm 20.4° 1006.8 hPa 5.5 m/s 0.3 mm 24.2° 1009.3 hPa 5.6 m/s
17:00 22.8° 1009.7 hPa 5.6 m/s 13.3 mm 22.8° 1009.7 hPa 5.6 m/s 13.3 mm
20:00 18.8° 1010.2 hPa 3.6 m/s 13.3 mm 18.8° 1010.2 hPa 3.6 m/s 13.3 mm
23:00 15.5° 1011.4 hPa 1.5 m/s 13.3 mm 15.5° 1011.4 hPa 1.5 m/s 13.3 mm
 05:41     21:00    Daglengte: 15:19 Donderdag 18 Aug
02:00 14.8° 1012.5 hPa 1.4 m/s 13.3 mm 14.8° 1012.5 hPa 1.4 m/s 13.3 mm
05:00 13.4° 1013.7 hPa 2.6 m/s 13.3 mm 13.4° 1013.7 hPa 2.6 m/s 13.3 mm
08:00 14.1° 1014.7 hPa 2.9 m/s 13.3 mm 14.1° 1014.7 hPa 2.9 m/s 13.3 mm
11:00 19.1° 1014.1 hPa 2.9 m/s 13.3 mm 19.1° 1014.1 hPa 2.9 m/s 13.3 mm
14:00 24.0° 1013.0 hPa 1.1 m/s 13.4 mm 24.0° 1013.0 hPa 1.1 m/s 13.4 mm
17:00 21.5° 1012.1 hPa 0.5 m/s 13.8 mm 21.5° 1012.1 hPa 0.5 m/s 13.8 mm
20:00 17.9° 1011.9 hPa 0.7 m/s 15.0 mm 17.9° 1011.9 hPa 0.7 m/s 15.0 mm
23:00 16.1° 1011.7 hPa 1.2 m/s 15.4 mm 16.1° 1011.7 hPa 1.2 m/s 15.4 mm
 05:43     20:57    Daglengte: 15:14 Vrijdag 19 Aug
02:00 16.1° 1011.3 hPa 0.8 m/s 15.4 mm 16.1° 1011.3 hPa 0.8 m/s 15.4 mm
05:00 15.0° 1011.1 hPa 1.3 m/s 15.4 mm 15.0° 1011.1 hPa 1.3 m/s 15.4 mm
08:00 17.4° 1011.1 hPa 1.1 m/s 16.1 mm 17.4° 1011.1 hPa 1.1 m/s 16.1 mm
11:00 18.6° 1010.9 hPa 1.2 m/s 16.6 mm 18.6° 1010.9 hPa 1.2 m/s 16.6 mm
14:00 21.4° 1009.9 hPa 1.3 m/s 17.9 mm 21.4° 1009.9 hPa 1.3 m/s 17.9 mm
17:00 21.7° 1008.6 hPa 2.0 m/s 23.4 mm 21.7° 1008.6 hPa 2.0 m/s 23.4 mm
20:00 18.2° 1007.6 hPa 1.7 m/s 28.2 mm 18.2° 1007.6 hPa 1.7 m/s 28.2 mm
23:00 17.4° 1007.4 hPa 1.1 m/s 31.8 mm 17.4° 1007.4 hPa 1.1 m/s 31.8 mm
 05:45     20:54    Daglengte: 15:09 Zaterdag 20 Aug
02:00 16.9° 1007.4 hPa 1.9 m/s 33.9 mm 16.9° 1007.4 hPa 1.9 m/s 33.9 mm
05:00 15.7° 1007.4 hPa 1.3 m/s 34.0 mm 15.7° 1007.4 hPa 1.3 m/s 34.0 mm
08:00 15.9° 1007.3 hPa 0.4 m/s 34.0 mm 15.9° 1007.3 hPa 0.4 m/s 34.0 mm
11:00 19.0° 1007.2 hPa 0.5 m/s 34.0 mm 19.0° 1007.2 hPa 0.5 m/s 34.0 mm
14:00 21.3° 1006.7 hPa 1.5 m/s 34.0 mm 21.3° 1006.7 hPa 1.5 m/s 34.0 mm
20:00 17.8° 1005.7 hPa 1.7 m/s 34.0 mm 17.8° 1005.7 hPa 1.7 m/s 34.0 mm
23:00 14.6° 1006.0 hPa 0.6 m/s 34.0 mm 14.6° 1006.0 hPa 0.6 m/s 34.0 mm
 05:48     20:51    Daglengte: 15:03 Zondag 21 Aug
02:00 14.2° 1005.1 hPa 1.3 m/s 34.0 mm 14.2° 1005.1 hPa 1.3 m/s 34.0 mm
05:00 13.1° 1004.5 hPa 1.6 m/s 34.0 mm 13.1° 1004.5 hPa 1.6 m/s 34.0 mm
08:00 15.7° 1003.4 hPa 2.1 m/s 34.0 mm 15.7° 1003.4 hPa 2.1 m/s 34.0 mm
11:00 17.6° 1002.8 hPa 3.6 m/s 34.0 mm 17.6° 1002.8 hPa 3.6 m/s 34.0 mm
14:00 18.3° 1002.5 hPa 5.2 m/s 34.0 mm 18.3° 1002.5 hPa 5.2 m/s 34.0 mm
17:00 17.8° 1002.7 hPa 3.8 m/s 34.0 mm 17.8° 1002.7 hPa 3.8 m/s 34.0 mm
20:00 16.3° 1002.7 hPa 2.2 m/s 34.0 mm 16.3° 1002.7 hPa 2.2 m/s 34.0 mm
 05:50     20:48    Daglengte: 14:58 Maandag 22 Aug
02:00 13.9° 1003.6 hPa 0.5 m/s 34.0 mm 13.9° 1003.6 hPa 0.5 m/s 34.1 mm
08:00 12.5° 1005.2 hPa 1.4 m/s 34.3 mm 12.5° 1005.2 hPa 1.4 m/s 34.3 mm
14:00 14.3° 1007.4 hPa 3.0 m/s 34.3 mm 14.3° 1007.4 hPa 3.0 m/s 34.3 mm
20:00 13.8° 1006.9 hPa 1.3 m/s 34.4 mm 13.8° 1006.9 hPa 1.3 m/s 34.4 mm
 05:52     20:45    Daglengte: 14:53 Dinsdag 23 Aug
02:00 12.0° 1006.6 hPa 1.4 m/s 35.7 mm 12.0° 1006.6 hPa 1.4 m/s 35.7 mm
08:00 13.1° 1006.2 hPa 1.3 m/s 38.6 mm 13.1° 1006.2 hPa 1.3 m/s 38.6 mm
14:00 16.9° 1007.8 hPa 1.6 m/s 38.9 mm 16.9° 1007.8 hPa 1.6 m/s 38.9 mm
20:00 16.8° 1008.1 hPa 2.8 m/s 39.0 mm 16.8° 1008.1 hPa 2.8 m/s 39.0 mm
 05:55     20:43    Daglengte: 14:48 Woensdag 24 Aug
02:00 11.8° 1010.0 hPa 1.0 m/s 39.0 mm 11.8° 1010.0 hPa 1.0 m/s 39.0 mm
08:00 12.7° 1013.0 hPa 1.1 m/s 39.0 mm 12.7° 1013.0 hPa 1.1 m/s 39.0 mm
14:00 20.6° 1015.2 hPa 1.8 m/s 0.1 mm
20:00 16.8° 1015.0 hPa 1.3 m/s 0.3 mm
 05:57     20:40    Daglengte: 14:43 Donderdag 25 Aug
02:00 13.0° 1016.4 hPa 0.4 m/s 0.0 mm
08:00 13.8° 1016.9 hPa 0.2 m/s 0.1 mm
14:00 20.9° 1016.8 hPa 1.0 m/s 0.3 mm
20:00 16.9° 1016.9 hPa 0.7 m/s 0.2 mm
 06:00     20:37    Daglengte: 14:37 Vrijdag 26 Aug
02:00 12.4° 1018.7 hPa 0.3 m/s 0.1 mm
08:00 13.4° 1019.1 hPa 0.5 m/s 0.4 mm
14:00 21.1° 1018.3 hPa 1.0 m/s 0.2 mm
20:00 16.8° 1017.6 hPa 0.7 m/s 0.4 mm
 06:02     20:34    Daglengte: 14:32 Zaterdag 27 Aug
02:00 12.7° 1018.9 hPa 0.3 m/s 0.1 mm
08:00 13.5° 1018.9 hPa 0.4 m/s 0.0 mm
14:00 20.5° 1017.8 hPa 0.6 m/s 0.2 mm
20:00 16.4° 1016.9 hPa 0.4 m/s 0.4 mm
 06:04     20:31    Daglengte: 14:27 Zondag 28 Aug
02:00 12.5° 1018.0 hPa 0.8 m/s 0.5 mm
08:00 13.3° 1018.0 hPa 1.1 m/s 0.3 mm
14:00 20.6° 1017.0 hPa 0.3 m/s 0.4 mm
20:00 16.8° 1016.6 hPa 0.4 m/s 0.4 mm
 06:07     20:28    Daglengte: 14:21 Maandag 29 Aug
02:00 12.4° 1018.1 hPa 0.6 m/s 0.3 mm
08:00 13.0° 1018.4 hPa 0.8 m/s 0.1 mm
14:00 21.0° 1017.8 hPa 0.1 m/s 0.4 mm
FMI Hirlam - 7.5 km EWN WRFDA - 12 km DWD ICON - 7 km GFS - 25 km Basiskaart






























































Updatetijd (Europe/Brussels) Resolutie Lengte Stap
FMI Hirlam 14:15, 20:15, 02:15, 08:15 7.5 km 49h 1h
EWN WRFDA 10:15, 16:15, 22:15, 04:15 12 km 73h 1h
DWD ICON 11:45, 17:45, 23:45, 05:45 7 km 75h 1h
GFS 14:15, 20:15, 02:15, 08:15 25 km 237h 3h
30+ mm
25-30 mm
20-25 mm
15-20 mm
10-15 mm
6-10 mm
4-6 mm
2-4 mm
1-2 mm
0.5-1 mm
0.2-0.5 mm
0.1-0.2 mm
30+ mm
25-30 mm
20-25 mm
15-20 mm
10-15 mm
6-10 mm
4-6 mm
2-4 mm
1-2 mm
0.5-1 mm
0.2-0.5 mm
0.1-0.2 mm
Sneeuwval
Natte sneeuw
Hagel
Vorst
30+ mm
25-30 mm
20-25 mm
15-20 mm
10-15 mm
6-10 mm
4-6 mm
2-4 mm
1-2 mm
0.5-1 mm
0.2-0.5 mm
0.1-0.2 mm
Sneeuwval
Natte sneeuw
Hagel
Vorst
Onweer
50 mm
40 mm
30 mm
26 mm
22 mm
18 mm
14 mm
10 mm
9 mm
8 mm
7 mm
6 mm
5 mm
4.5 mm
4 mm
3.5 mm
3 mm
2.5 mm
2 mm
1.5 mm
1 mm
0.8 mm
0.6 mm
0.4 mm
0.2 mm
0.05 mm
35°
30°
25°
20°
15°
10°
-5°
-10°
-15°